#timestamp,LO_Frequency,Hit,StdDev 
1627218015.3,286046998.8,N
1627218035.1,286046998.5,N
1627218055.9,286046998.5,N
1627218075.7,286046998.4,N
1627218095.5,286046999.3,N
1627218115.4,286046999.1,N
1627218135.2,286046999.3,N
1627218155.0,286046998.8,N
1627218155.9,286046998.8,N
1627218175.8,286046996.8,Y
1627218195.6,286046999.4,P
1627218215.5,286046999.2,P
1627218235.3,286046996.7,P
1627218255.1,286046997.1,N
1627218275.9,286046996.8,N
1627218295.7,286046996.5,N
1627218315.5,286046997.4,N
1627218335.4,286046997.1,N
1627218355.2,286046996.6,Y
1627218375.1,286046999.4,P
1627218376.0,286046999.4,N
1627218395.8,286046998.5,N
1627218415.6,286047001.0,N
1627218435.5,286047000.9,N
1627218455.3,286046998.1,N
1627218475.1,286046998.5,N
1627218495.9,286046998.8,N
1627218515.7,286046996.9,N
1627218535.6,286046999.2,N
1627218555.4,286046998.9,N
1627218575.2,286046998.9,N
1627218595.1,286046998.8,N
1627218596.0,286046998.8,N
1627218615.8,286046999.0,N
1627218635.7,286046999.4,N
1627218655.5,286046996.5,Y
1627218675.3,286046999.3,P
1627218695.2,286046999.6,N
1627218715.0,286046997.0,P
1627218715.9,286046997.0,N
1627218735.7,286046999.3,N
1627218755.6,286046999.0,N
1627218775.4,286046997.4,N
1627218795.3,286046999.5,N
1627218815.1,286046999.4,N
1627218816.0,286046999.4,N
1627218835.8,286046998.8,N
1627218855.7,286046999.0,N
1627218875.5,286046998.1,N
1627218895.3,286047000.9,N
1627218915.2,286047011.9,Y
1627218935.0,286047000.6,P
1627218935.9,286047000.6,N
1627218955.8,286047000.8,N
1627218975.6,286047001.2,N
1627218995.4,286046998.4,N
1627219015.3,286046998.4,N
1627219035.1,286046999.3,N
1627219055.8,286046999.1,N
1627219075.7,286046996.6,Y
1627219095.5,286046999.6,P
1627219115.4,286046999.0,P
1627219135.2,286046999.3,N
1627219155.0,286046998.8,Y
1627219155.9,286046998.8,P
1627219175.8,286046999.2,N
1627219195.6,286046998.2,P
1627219215.5,286047001.1,N
1627219235.3,286046998.5,N
1627219255.1,286046998.8,N
1627219275.9,286047001.2,N
1627219295.7,286046998.5,N
1627219315.5,286047001.2,N
1627219335.4,286047001.0,N
1627219355.2,286046998.7,N
1627219375.1,286046998.2,N
1627219376.0,286046998.2,N
1627219395.8,286046998.4,N
1627219415.6,286047000.7,N
1627219435.5,286047000.0,N
1627219455.3,286047000.6,N
1627219475.1,286047000.2,N
1627219495.9,286047000.4,N
1627219515.7,286047002.7,N
1627219535.6,286047002.6,N
1627219555.4,286046999.7,N
1627219575.2,286047002.8,N
1627219595.1,286047001.6,N
1627219596.0,286047001.6,N
1627219615.8,286047002.1,N
1627219635.6,286047002.6,N
1627219655.5,286047002.8,N
1627219675.3,286046999.9,N
1627219695.2,286047000.2,N
1627219715.9,286046998.3,N
1627219735.7,286047000.6,N
1627219755.6,286047002.7,N
1627219775.4,286046998.6,N
1627219795.2,286046998.3,N
1627219815.1,286047001.0,N
1627219816.0,286047001.0,N
1627219835.8,286046998.5,N
1627219855.7,286046998.2,N
1627219875.5,286046998.4,N
1627219895.3,286046998.1,N
1627219915.2,286046999.0,N
1627219935.0,286046998.6,N
1627219935.9,286046998.6,N
1627219955.7,286047000.8,N
1627219975.6,286047002.2,N
1627219995.4,286047002.8,N
1627220015.3,286047002.3,N
1627220035.1,286047000.3,N
1627220036.0,286047000.3,N
1627220055.8,286047002.4,N
1627220075.7,286047000.0,N
1627220095.5,286047002.7,N
1627220115.3,286046999.9,N
1627220135.2,286047002.7,N
1627220155.0,286047002.8,N
1627220155.9,286047002.8,N
1627220175.8,286047002.3,N
1627220195.6,286047000.0,N
1627220215.4,286046999.8,N
1627220235.3,286047002.8,N
1627220255.1,286046999.9,N
1627220275.8,286047002.4,N
1627220295.7,286047002.7,N
1627220315.5,286047002.8,N
1627220335.4,286047002.4,N
1627220355.2,286047004.4,N
1627220375.0,286047002.5,N
1627220375.9,286047002.5,N
1627220395.8,286046999.8,N
1627220415.6,286047000.3,N
1627220435.8,286047000.6,N
1627220455.7,286047000.6,N
1627220475.5,286047000.8,N
1627220495.3,286046998.6,N
1627220515.2,286047000.7,N
1627220535.9,286046998.9,N
1627220555.7,286046998.6,N
1627220575.6,286046998.9,N
1627220595.4,286046999.0,N
1627220615.3,286046999.6,N
1627220635.1,286046996.8,N
1627220636.0,286046996.8,N
1627220655.8,286046996.8,N
1627220675.7,286046997.7,N
1627220695.5,286046994.9,N
1627220715.3,286046997.5,N
1627220735.2,286046997.7,N
1627220755.0,286046997.9,N
1627220755.9,286046997.9,N
1627220775.8,286046994.9,N
1627220795.6,286046995.0,N
1627220815.4,286046997.4,N
1627220835.3,286046995.3,N
1627220855.1,286046995.4,N
1627220875.8,286046995.0,N
1627220895.7,286046997.4,N
1627220915.5,286046996.4,N
1627220935.4,286046993.3,Y
1627220955.2,286046998.2,P
1627220975.0,286047001.0,P
1627220975.9,286047001.0,N
1627220995.8,286047002.8,N
1627221015.6,286047005.6,Y
1627221035.5,286047004.8,P
1627221055.3,286047005.9,N
1627221075.1,286047004.2,N
1627221095.9,286047000.0,N
1627221115.7,286047001.0,N
1627221135.5,286046999.0,N
1627221155.4,286046999.4,N
1627221175.2,286046999.3,N
1627221195.0,286046996.9,N
1627221196.0,286046996.9,N
1627221215.8,286046996.9,N
1627221235.6,286046996.9,N
1627221255.5,286046999.1,N
1627221275.3,286046998.6,N
1627221295.1,286046997.0,N
1627221315.9,286046997.0,N
1627221335.7,286046996.6,N
1627221355.6,286046999.4,N
1627221375.5,286046999.0,N
1627221395.3,286046996.5,N
1627221415.1,286046999.1,N
1627221435.9,286046997.1,N
1627221455.7,286046999.4,N
1627221475.6,286046999.2,N
1627221495.4,286046999.6,N
1627221515.2,286046996.7,N
1627221535.1,286046997.2,N
1627221536.0,286046997.2,N
1627221555.8,286046997.1,N
1627221575.6,286046995.0,N
1627221595.5,286046995.4,N
